Погода в Новой Астрахани

Украина / Луганская область     49°07′39″N   38°36′37″E
темп.,
°C
ветер,
м/с
пор.,
м/с
влажн.,
%
обл.,
%
осадки,
мм/ч
давл.,
гПа
погр.,
м
22 октября, пт
пт2200:00+11юз8185890 0.0 1014676
03:00+10юз81876100 0.0 1013677
06:00+10юз8177846 0.0 1012598
09:00+12юз815745 0.0 1012631
12:00+16зюз911560 0.0 1012964
15:00+18зюз7105142 0.0 10121483
18:00+14юз4762100 0.0 101399
21:00+13зюз486892 0.0 1015139
23 октября, сб
сб2300:00+11зюз2270100 0.0 101522
03:00+10юз347571 0.0 101546
06:00+10юз3577100 0.0 101583
09:00+13юз4961100 0.0 1015272
12:00+16зюз5851100 0.0 1015592
15:00+13юз5970100 0.3 1015797
18:00+11з5975100 0.9 1016525
21:00+11з51076100 1.1 1016541
24 октября, вс
вс2400:00+7зсз411681 0.0 1018317
03:00+4зсз49760 0.0 1019205
06:00+3зсз358576 0.0 101991
09:00+5зсз4669100 0.0 1021289
12:00+10зсз564763 0.0 10201333
15:00+10зсз674187 0.0 10191841
18:00+7зсз584864 0.0 1020674
21:00+5з37545 0.0 1020129
25 октября, пн
пн2500:00+4сз5107697 0.0 1021581
03:00+4ссз71081100 0.1 1022969
06:00+3ссз6959100 0.1 10241443
09:00+3ссз786473 0.1 10271043
12:00+4с675499 0.0 10291239
15:00+6с674695 0.0 10291420
18:00+2с36595 0.0 1032140
21:000с336479 0.0 103344
26 октября, вт
вт2600:000с22675 0.0 103425
03:00−1с22723 0.0 103510
06:00−2ссв11770 0.0 103510
09:00+1в11620 0.0 1036166
12:00+6ююв22460 0.0 1035747
15:00+7ю22385 0.0 1033885
18:00+4ююв225031 0.0 103310
21:00+2ююв2255100 0.0 103321